Location: Newark
(16.3678°N, 77.8722°E)
Time: 05:30:12
(UTC+00:00)

Tiros 1 - Pass Details

Date: 18 December 2019
Orbit: 630 x 664 km, 48.4° (Epoch: 26 January)

Event Time Altitude Azimuth Distance (km) Brightness Sun altitude
Rises 18:24:48 0° 187° (S) 2,981 - -81.5°
Reaches altitude 10° 18:27:56 10° 166° (SSE) 2,071 - -81.9°
Maximum altitude 18:30:54 16° 127° (SE) 1,682 - -82.2°
Drops below altitude 10° 18:33:53 10° 88° (E) 2,069 - -82.5°
Sets 18:36:59 0° 67° (ENE) 2,977 - -82.7°
